Atmospheric History
12/06/2017 18:48  to  12/7/2017 18:48
Change End Date:
To complete the export process:
1) Select all of the data below
2) Copy the data to the clipboard
3) Open a word processor such as Notepad
4) Paste the data into the word processor
5) Save the file

Date/Time (MDT), AirTemp, RH, Dewpoint ,AvgWindSpeed, GustWindSpeed, WindDirection, PrecipType, PrecipIntensity, PrecipAccumulation, PrecipRate
12/07/2017 18:44, 20, 93, 18 ,0, 0, S, None, None, ,  
12/07/2017 18:41, 19, 93, 18 ,0, 1, S, None, None, ,  
12/07/2017 18:34, 20, 93, 18 ,0, 2, S, None, None, ,  
12/07/2017 18:26, 20, 93, 18 ,0, 0, S, None, None, ,  
12/07/2017 18:24, 20, 93, 19 ,0, 3, S, None, None, ,  
12/07/2017 18:14, 21, 94, 20 ,0, 1, SE, None, None, ,  
12/07/2017 18:11, 21, 93, 19 ,0, 2, S, None, None, ,  
12/07/2017 18:04, 21, 94, 20 ,1, 4, SE, None, None, ,  
12/07/2017 17:56, 22, 94, 20 ,2, 4, S, None, None, ,  
12/07/2017 17:54, 22, 94, 21 ,1, 1, S, None, None, ,  
12/07/2017 17:44, 22, 93, 20 ,0, 2, S, None, None, ,  
12/07/2017 17:41, 22, 92, 20 ,1, 2, S, None, None, ,  
12/07/2017 17:34, 23, 93, 21 ,0, 1, SE, None, None, ,  
12/07/2017 17:26, 23, 92, 21 ,1, 2, S, None, None, ,  
12/07/2017 17:23, 24, 93, 22 ,0, 2, S, None, None, ,  
12/07/2017 17:13, 24, 91, 22 ,0, 1, E, None, None, ,  
12/07/2017 17:11, 24, 91, 22 ,0, 1, E, None, None, ,  
12/07/2017 17:03, 25, 90, 23 ,0, 5, N, None, None, ,  
12/07/2017 16:56, 26, 91, 23 ,4, 7, N, None, None, ,  
12/07/2017 16:53, 26, 91, 23 ,4, 7, N, None, None, ,  
12/07/2017 16:43, 25, 90, 22 ,2, 4, NW, None, None, ,  
12/07/2017 16:41, 25, 90, 23 ,1, 4, N, None, None, ,  
12/07/2017 16:33, 26, 91, 24 ,3, 4, NW, None, None, ,  
12/07/2017 16:26, 25, 90, 23 ,0, 3, N, None, None, ,  
12/07/2017 16:23, 26, 88, 23 ,0, 3, SW, None, None, ,  
12/07/2017 16:13, 26, 91, 24 ,2, 3, N, None, None, ,  
12/07/2017 16:11, 26, 90, 23 ,0, 2, N, None, None, ,  
12/07/2017 16:03, 27, 90, 24 ,0, 2, W, None, None, ,  
12/07/2017 15:56, 26, 88, 24 ,0, 1, W, None, None, ,  
12/07/2017 15:53, 27, 89, 24 ,0, 2, W, None, None, ,  
12/07/2017 15:43, 28, 88, 24 ,2, 3, NW, None, None, ,  
12/07/2017 15:41, 28, 88, 24 ,1, 3, E, None, None, ,  
12/07/2017 15:33, 28, 86, 25 ,2, 5, NW, None, None, ,  
12/07/2017 15:26, 28, 86, 25 ,4, 4, NW, None, None, ,  
12/07/2017 15:23, 29, 86, 25 ,2, 3, NW, None, None, ,  
12/07/2017 15:13, 29, 84, 25 ,2, 4, NW, None, None, ,  
12/07/2017 15:11, 29, 84, 25 ,3, 4, NW, None, None, ,  
12/07/2017 15:03, 29, 82, 25 ,0, 1, NW, None, None, ,  
12/07/2017 14:56, 31, 77, 25 ,0, 1, S, None, None, ,  
12/07/2017 14:53, 31, 76, 25 ,0, 0, S, None, None, ,  
12/07/2017 14:43, 31, 75, 24 ,0, 0, SW, None, None, ,  
12/07/2017 14:41, 31, 75, 24 ,0, 0, S, None, None, ,  
12/07/2017 14:32, 33, 71, 24 ,0, 2, W, None, None, ,  
12/07/2017 14:26, 33, 68, 23 ,0, 2, S, None, None, ,  
12/07/2017 14:22, 33, 65, 22 ,0, 1, S, None, None, ,  
12/07/2017 14:12, 31, 69, 22 ,0, 0, S, None, None, ,  
12/07/2017 14:11, 31, 67, 21 ,0, 0, S, None, None, ,  
12/07/2017 14:02, 31, 62, 20 ,0, 0, S, None, None, ,  
12/07/2017 13:56, 31, 61, 19 ,0, 1, S, None, None, ,  
12/07/2017 13:52, 32, 61, 20 ,0, 1, SW, None, None, ,  
12/07/2017 13:42, 32, 59, 19 ,0, 2, S, None, None, ,  
12/07/2017 13:41, 32, 61, 20 ,0, 2, S, None, None, ,  
12/07/2017 13:32, 30, 62, 19 ,2, 2, S, None, None, ,  
12/07/2017 13:26, 30, 62, 18 ,1, 3, S, None, None, ,  
12/07/2017 13:22, 30, 61, 18 ,1, 3, S, None, None, ,  
12/07/2017 13:12, 29, 61, 18 ,1, 6, S, None, None, ,  
12/07/2017 13:11, 29, 61, 18 ,2, 6, SE, None, None, ,  
12/07/2017 13:02, 28, 64, 17 ,4, 6, S, None, None, ,  
12/07/2017 12:52, 29, 62, 17 ,2, 2, SE, None, None, ,  
12/07/2017 12:42, 28, 62, 17 ,1, 2, S, None, None, ,  
12/07/2017 12:32, 28, 64, 18 ,1, 2, S, None, None, ,  
12/07/2017 12:26, 28, 61, 17 ,1, 2, SE, None, None, ,  
12/07/2017 12:22, 28, 63, 17 ,1, 2, S, None, None, ,  
12/07/2017 12:12, 29, 60, 17 ,0, 2, SW, None, None, ,  
12/07/2017 12:11, 29, 60, 17 ,0, 2, SW, None, None, ,  
12/07/2017 12:01, 26, 64, 16 ,2, 4, SE, None, None, ,  
12/07/2017 11:56, 26, 65, 16 ,3, 4, S, None, None, ,  
12/07/2017 11:51, 26, 65, 16 ,2, 4, SE, None, None, ,  
12/07/2017 11:41, 24, 68, 15 ,1, 3, S, None, None, ,  
12/07/2017 11:41, 24, 67, 15 ,1, 3, S, None, None, ,  
12/07/2017 11:31, 24, 69, 15 ,2, 4, SE, None, None, ,  
12/07/2017 11:26, 23, 70, 15 ,2, 5, S, None, None, ,  
12/07/2017 11:21, 23, 70, 15 ,4, 6, S, None, None, ,  
12/07/2017 11:11, 24, 71, 15 ,1, 4, S, None, None, ,  
12/07/2017 11:11, 23, 71, 15 ,1, 4, S, None, None, ,  
12/07/2017 11:01, 23, 71, 15 ,2, 3, S, None, None, ,  
12/07/2017 10:56, 23, 71, 15 ,1, 3, SW, None, None, ,  
12/07/2017 10:51, 22, 73, 14 ,2, 3, S, None, None, ,  
12/07/2017 10:41, 21, 73, 14 ,2, 4, SE, None, None, ,  
12/07/2017 10:41, 21, 73, 14 ,2, 4, SE, None, None, ,  
12/07/2017 10:31, 21, 74, 14 ,3, 6, S, None, None, ,  
12/07/2017 10:26, 21, 74, 14 ,4, 6, SE, None, None, ,  
12/07/2017 10:21, 21, 74, 14 ,2, 4, SE, None, None, ,  
12/07/2017 10:11, 20, 76, 14 ,1, 6, SE, None, None, ,  
12/07/2017 10:11, 20, 76, 14 ,1, 6, SE, None, None, ,  
12/07/2017 10:01, 20, 77, 14 ,2, 4, S, None, None, ,  
12/07/2017 09:56, 20, 77, 14 ,2, 4, S, None, None, ,  
12/07/2017 09:51, 19, 78, 14 ,3, 5, S, None, None, ,  
12/07/2017 09:41, 19, 79, 14 ,4, 6, SE, None, None, ,  
12/07/2017 09:41, 19, 79, 14 ,4, 6, SE, None, None, ,  
12/07/2017 09:31, 19, 80, 14 ,2, 3, S, None, None, ,  
12/07/2017 09:26, 19, 80, 14 ,2, 2, S, None, None, ,  
12/07/2017 09:21, 19, 81, 14 ,0, 2, S, None, None, ,  
12/07/2017 09:11, 19, 81, 14 ,0, 1, SE, None, None, ,  
12/07/2017 09:11, 19, 81, 14 ,0, 1, SE, None, None, ,  
12/07/2017 09:00, 18, 81, 14 ,1, 3, SE, None, None, ,  
12/07/2017 08:56, 18, 82, 14 ,2, 3, E, None, None, ,  
12/07/2017 08:50, 18, 82, 14 ,1, 2, SE, None, None, ,  
12/07/2017 08:41, 18, 82, 14 ,0, 4, S, None, None, ,  
12/07/2017 08:40, 18, 82, 14 ,0, 4, S, None, None, ,  
12/07/2017 08:30, 18, 83, 14 ,2, 6, SE, None, None, ,  
12/07/2017 08:26, 18, 83, 14 ,4, 6, SE, None, None, ,  
12/07/2017 08:20, 18, 84, 14 ,2, 4, E, None, None, ,  
12/07/2017 08:11, 18, 85, 14 ,2, 5, SE, None, None, ,  
12/07/2017 08:10, 18, 85, 14 ,2, 4, SE, None, None, ,  
12/07/2017 08:00, 18, 85, 14 ,0, 2, S, None, None, ,  
12/07/2017 07:56, 18, 86, 14 ,1, 2, S, None, None, ,  
12/07/2017 07:50, 18, 84, 14 ,0, 4, SE, None, None, ,  
12/07/2017 07:41, 19, 85, 15 ,3, 4, S, None, None, ,  
12/07/2017 07:40, 19, 85, 15 ,4, 4, S, None, None, ,  
12/07/2017 07:30, 19, 85, 15 ,3, 6, SE, None, None, ,  
12/07/2017 07:26, 19, 86, 15 ,2, 5, SE, None, None, ,  
12/07/2017 07:20, 19, 87, 15 ,1, 2, S, None, None, ,  
12/07/2017 07:11, 19, 86, 15 ,0, 2, S, None, None, ,  
12/07/2017 07:10, 19, 86, 15 ,0, 2, S, None, None, ,  
12/07/2017 07:00, 19, 86, 15 ,0, 2, SE, None, None, ,  
12/07/2017 06:56, 19, 86, 15 ,1, 6, S, None, None, ,  
12/07/2017 06:50, 19, 86, 16 ,3, 6, S, None, None, ,  
12/07/2017 06:41, 19, 87, 16 ,2, 3, SE, None, None, ,  
12/07/2017 06:40, 19, 87, 16 ,2, 3, SE, None, None, ,  
12/07/2017 06:29, 19, 88, 16 ,1, 2, SE, None, None, ,  
12/07/2017 06:26, 19, 90, 17 ,1, 2, S, None, None, ,  
12/07/2017 06:19, 19, 91, 17 ,1, 1, S, None, None, ,  
12/07/2017 06:11, 19, 90, 17 ,0, 1, S, None, None, ,  
12/07/2017 06:09, 19, 90, 17 ,0, 1, S, None, None, ,  
12/07/2017 05:59, 20, 90, 17 ,0, 0, S, None, None, ,  
12/07/2017 05:56, 20, 90, 17 ,0, 0, S, None, None, ,  
12/07/2017 05:49, 20, 91, 17 ,0, 1, S, None, None, ,  
12/07/2017 05:41, 20, 91, 17 ,0, 1, S, None, None, ,  
12/07/2017 05:39, 20, 90, 17 ,0, 0, S, None, None, ,  
12/07/2017 05:29, 20, 91, 18 ,0, 1, S, None, None, ,  
12/07/2017 05:26, 20, 91, 18 ,0, 1, S, None, None, ,  
12/07/2017 05:19, 20, 91, 17 ,0, 0, S, None, None, ,  
12/07/2017 05:11, 20, 91, 17 ,0, 0, S, None, None, ,  
12/07/2017 05:09, 20, 90, 17 ,0, 0, S, None, None, ,  
12/07/2017 04:59, 20, 91, 18 ,0, 0, S, None, None, ,  
12/07/2017 04:56, 20, 91, 18 ,0, 0, S, None, None, ,  
12/07/2017 04:49, 20, 91, 18 ,0, 0, S, None, None, ,  
12/07/2017 04:41, 20, 91, 18 ,0, 0, S, None, None, ,  
12/07/2017 04:39, 20, 91, 18 ,0, 1, S, None, None, ,  
12/07/2017 04:29, 20, 90, 17 ,1, 1, S, None, None, ,  
12/07/2017 04:26, 20, 90, 17 ,1, 1, S, None, None, ,  
12/07/2017 04:19, 20, 90, 18 ,0, 0, S, None, None, ,  
12/07/2017 04:11, 20, 91, 18 ,0, 0, S, None, None, ,  
12/07/2017 04:09, 20, 91, 18 ,0, 0, S, None, None, ,  
12/07/2017 03:59, 20, 89, 17 ,0, 0, S, None, None, ,  
12/07/2017 03:56, 20, 90, 18 ,0, 0, S, None, None, ,  
12/07/2017 03:48, 20, 90, 18 ,0, 0, S, None, None, ,  
12/07/2017 03:41, 20, 89, 18 ,0, 1, S, None, None, ,  
12/07/2017 03:38, 20, 89, 18 ,0, 1, SE, None, None, ,  
12/07/2017 03:28, 20, 90, 18 ,0, 0, S, None, None, ,  
12/07/2017 03:26, 20, 90, 18 ,0, 0, S, None, None, ,  
12/07/2017 03:18, 20, 90, 18 ,0, 0, SE, None, None, ,  
12/07/2017 03:11, 20, 89, 18 ,0, 1, S, None, None, ,  
12/07/2017 03:08, 21, 89, 18 ,0, 1, S, None, None, ,  
12/07/2017 02:58, 20, 90, 18 ,1, 1, S, None, None, ,  
12/07/2017 02:56, 20, 90, 18 ,0, 0, S, None, None, ,  
12/07/2017 02:48, 21, 90, 18 ,0, 0, S, None, None, ,  
12/07/2017 02:41, 20, 90, 18 ,0, 1, S, None, None, ,  
12/07/2017 02:38, 20, 90, 18 ,0, 1, S, None, None, ,  
12/07/2017 02:28, 21, 90, 18 ,0, 1, S, None, None, ,  
12/07/2017 02:26, 21, 90, 18 ,0, 1, S, None, None, ,  
12/07/2017 02:18, 20, 90, 18 ,0, 0, S, None, None, ,  
12/07/2017 02:11, 20, 90, 18 ,0, 0, S, None, None, ,  
12/07/2017 02:08, 20, 90, 18 ,0, 1, S, None, None, ,  
12/07/2017 01:58, 20, 90, 18 ,0, 1, SE, None, None, ,  
12/07/2017 01:56, 20, 90, 18 ,0, 2, SE, None, None, ,  
12/07/2017 01:48, 21, 91, 18 ,1, 2, S, None, None, ,  
12/07/2017 01:41, 20, 91, 18 ,0, 0, S, None, None, ,  
12/07/2017 01:38, 20, 90, 18 ,0, 0, S, None, None, ,  
12/07/2017 01:28, 20, 90, 18 ,0, 0, S, None, None, ,  
12/07/2017 01:26, 20, 91, 18 ,0, 0, S, None, None, ,  
12/07/2017 01:17, 20, 90, 18 ,0, 0, S, None, None, ,  
12/07/2017 01:11, 20, 90, 18 ,0, 0, S, None, None, ,  
12/07/2017 01:07, 20, 90, 18 ,0, 0, S, None, None, ,  
12/07/2017 00:57, 20, 90, 18 ,0, 0, S, None, None, ,  
12/07/2017 00:56, 20, 90, 18 ,0, 0, S, None, None, ,  
12/07/2017 00:47, 20, 90, 18 ,0, 0, S, None, None, ,  
12/07/2017 00:41, 20, 90, 18 ,0, 0, S, None, None, ,  
12/07/2017 00:37, 20, 89, 18 ,0, 0, S, None, None, ,  
12/07/2017 00:27, 20, 90, 18 ,0, 0, S, None, None, ,  
12/07/2017 00:26, 20, 90, 18 ,0, 0, S, None, None, ,  
12/07/2017 00:17, 20, 90, 18 ,0, 0, S, None, None, ,  
12/07/2017 00:11, 20, 90, 18 ,0, 0, S, None, None, ,  
12/07/2017 00:07, 21, 90, 18 ,0, 0, S, None, None, ,  
12/06/2017 23:57, 21, 90, 18 ,0, 0, S, None, None, ,  
12/06/2017 23:56, 21, 90, 18 ,0, 0, S, None, None, ,  
12/06/2017 23:47, 21, 89, 18 ,0, 0, S, None, None, ,  
12/06/2017 23:41, 20, 89, 18 ,0, 0, S, None, None, ,  
12/06/2017 23:37, 20, 90, 18 ,0, 0, S, None, None, ,  
12/06/2017 23:27, 21, 90, 18 ,0, 0, S, None, None, ,  
12/06/2017 23:26, 21, 90, 18 ,0, 0, S, None, None, ,  
12/06/2017 23:17, 20, 90, 18 ,0, 0, S, None, None, ,  
12/06/2017 23:11, 20, 90, 18 ,0, 0, S, None, None, ,  
12/06/2017 23:07, 20, 90, 18 ,0, 0, S, None, None, ,  
12/06/2017 22:57, 20, 90, 18 ,0, 0, S, None, None, ,  
12/06/2017 22:56, 20, 90, 18 ,0, 0, S, None, None, ,  
12/06/2017 22:47, 20, 90, 18 ,0, 0, S, None, None, ,  
12/06/2017 22:41, 20, 90, 18 ,0, 1, S, None, None, ,  
12/06/2017 22:37, 20, 90, 18 ,0, 1, S, None, None, ,  
12/06/2017 22:26, 20, 90, 18 ,0, 0, S, None, None, ,  
12/06/2017 22:26, 20, 90, 18 ,0, 0, S, None, None, ,  
12/06/2017 22:16, 21, 90, 18 ,0, 0, S, None, None, ,  
12/06/2017 22:11, 21, 90, 18 ,0, 1, S, None, None, ,  
12/06/2017 22:06, 21, 90, 18 ,0, 2, SE, None, None, ,  
12/06/2017 21:56, 20, 90, 18 ,2, 2, SE, None, None, ,  
12/06/2017 21:56, 20, 90, 18 ,1, 2, SE, None, None, ,  
12/06/2017 21:46, 20, 90, 18 ,0, 0, SE, None, None, ,  
12/06/2017 21:41, 20, 90, 18 ,0, 0, SE, None, None, ,  
12/06/2017 21:36, 20, 90, 18 ,0, 0, SE, None, None, ,  
12/06/2017 21:26, 21, 89, 18 ,0, 0, SE, None, None, ,  
12/06/2017 21:26, 21, 89, 18 ,0, 0, SE, None, None, ,  
12/06/2017 21:16, 21, 89, 18 ,0, 0, SE, None, None, ,  
12/06/2017 21:11, 21, 89, 18 ,0, 1, SE, None, None, ,  
12/06/2017 21:06, 21, 89, 18 ,0, 1, SE, None, None, ,  
12/06/2017 20:56, 21, 89, 18 ,0, 1, SE, None, None, ,  
12/06/2017 20:56, 21, 89, 18 ,0, 1, SE, None, None, ,  
12/06/2017 20:46, 21, 89, 18 ,1, 1, SE, None, None, ,  
12/06/2017 20:41, 21, 89, 18 ,0, 1, SE, None, None, ,  
12/06/2017 20:36, 21, 89, 18 ,0, 1, SE, None, None, ,  
12/06/2017 20:26, 21, 89, 18 ,1, 2, SE, None, None, ,  
12/06/2017 20:26, 21, 89, 18 ,1, 2, SE, None, None, ,  
12/06/2017 20:16, 21, 89, 18 ,2, 3, SE, None, None, ,  
12/06/2017 20:11, 21, 88, 18 ,1, 1, E, None, None, ,  
12/06/2017 20:06, 21, 88, 18 ,0, 1, E, None, None, ,  
12/06/2017 19:56, 21, 87, 18 ,0, 3, N, None, None, ,  
12/06/2017 19:46, 21, 89, 18 ,1, 2, W, None, None, ,  
12/06/2017 19:41, 21, 89, 18 ,0, 1, SW, None, None, ,  
12/06/2017 19:35, 21, 90, 18 ,0, 0, SW, None, None, ,  
12/06/2017 19:26, 21, 89, 18 ,0, 0, SW, None, None, ,  
12/06/2017 19:25, 21, 89, 18 ,0, 0, SW, None, None, ,  
12/06/2017 19:15, 21, 90, 19 ,0, 0, SW, None, None, ,  
12/06/2017 19:11, 21, 89, 18 ,0, 0, SW, None, None, ,  
12/06/2017 19:05, 21, 88, 18 ,0, 0, SW, None, None, ,  
12/06/2017 18:56, 21, 88, 18 ,0, 0, SW, None, None, ,  
12/06/2017 18:55, 21, 88, 18 ,0, 0, SW, None, None, ,  
Change End Date:

Copyright © 1998-2015 Vaisala, Inc.
All Rights Reserved
Send comments about the data to:
SCAN Web ® is a registered trademark of Vaisala, Inc.
SCAN Web Version 6.0